Regional Weather Roundup
Issued by NWS

Home | Current Version | Previous Version | Graphics & Text | Print | Product List | Glossary On
Versions: 1 2 3 4 5 6 7 8 9 10 11 12 13 14 15 16 17 18 19 20 21 22 23 24 25 26 27 28 29 30 31 32 33 34 35 36 37 38 39 40 41 42 43 44 45 46 47 48 49 50
000
ASUS43 KMPX 211310
RWRMN
WEATHER ROUNDUP FOR MINNESOTA
NATIONAL WEATHER SERVICE TWIN CITIES/CHANHASSEN MN
800 AM CDT MON APR 21 2014


NOTE: "FAIR" INDICATES FEW OR NO CLOUDS BELOW 12,000 FEET WITH NO
SIGNIFICANT WEATHER AND/OR OBSTRUCTIONS TO VISIBILITY. N/A MEANS
CURRENT SKY AND/OR WEATHER CONDITIONS ARE NOT AVAILABLE.

MNZ060>063-068>070-211400-
   Twin Cities Metro

CITY           SKY/WX    TMP DP  RH WIND       PRES   REMARKS
TWIN CITIES    CLOUDY    57  55  93 SW6       29.93R
ST PAUL        CLOUDY    58  53  84 CALM      29.93R
CRYSTAL        LGT RAIN  56  50  80 W6        29.92R
EDEN PRAIRIE   PTSUNNY   57  55  93 S3        29.92S FOG
LAKEVILLE      CLOUDY    55  54  94 W7        29.95R
SOUTH ST PAUL  CLOUDY    58  57  96 SW5       29.92S
LAKE ELMO      PTSUNNY   57  54  88 W5        29.93R
$$
MNZ001>005-007-008-013>017-022>024-027-028-211400-
   Northwest Minnesota

CITY           SKY/WX    TMP DP  RH WIND       PRES   REMARKS
BEMIDJI        MOSUNNY   45  36  69 W21G30    29.92R
HALLOCK        CLOUDY    37  34  87 NW20      30.02R
ROSEAU         CLOUDY    37  34  87 NW12      29.95R
WARROAD        CLOUDY    36  32  87 W9G20     29.93R
THIEF RVR FALL CLOUDY    36  30  80 NW17G28   30.01R
CROOKSTON      CLOUDY    37  36  93 NW22G29   30.04R
FOSSTON        CLOUDY    36  32  87 NW20      29.99R
DETROIT LAKES  SUNNY     45  36  70 NW21G26   29.98R
MOORHEAD       SUNNY     46  39  76 NW15      30.02R
PARK RAPIDS    SUNNY     48  35  60 W17       29.93R
$$
MNZ006-009>011-018-025>026-211400-
   North Central Minnesota

CITY           SKY/WX    TMP DP  RH WIND       PRES   REMARKS
BAUDETTE       PTSUNNY   38  33  82 NW16G24   29.90R
FLAG ISLAND    CLOUDY    34  30  86 NW22G28   29.88R WCI  22
INTL FALLS     SUNNY     46  36  68 W14G23    29.83R
WASKISH        CLOUDY    39  36  87 W13       29.91R
BIG FORK       SUNNY     52  36  54 W12G23    29.87R
LONGVILLE      SUNNY     52  34  50 W12       29.90S
GRAND RAPIDS   SUNNY     54  30  40 W17G24    29.89R
CRANE LAKE     MOSUNNY   48  36  61 SW3       29.84S
ORR            MOSUNNY   52  30  43 W10G21    29.82F
COOK           MOSUNNY   52  34  50 W9        29.85S
$$
MNZ012-019>021-037-211400-
   Northeast Minnesota

CITY           SKY/WX    TMP DP  RH WIND       PRES   REMARKS
DULUTH         MOSUNNY   50  34  54 W9        29.86F
ELY            PTSUNNY   46  28  49 SW3       29.84R
HIBBING        MOSUNNY   49  33  54 CALM      29.86F
EVELETH        PTSUNNY   43  32  65 CALM      29.87F
DULUTH HARBOR  MOSUNNY   39  34  81 CALM      29.88F
TWO HARBORS    MOSUNNY   43  30  61 SW1       29.84
SILVER BAY     MOSUNNY   37  34  87 CALM      29.83F
GRAND MARAIS     N/A     37  31  78 CALM      29.88S
G MARAIS ARPRT MOSUNNY   46  25  42 W5        29.87F
$$
MNZ029>031-032-039>041-046>048-054>057-064-211400-
   West Central Minnesota

CITY           SKY/WX    TMP DP  RH WIND       PRES   REMARKS
FERGUS FALLS   SUNNY     46  34  61 NW16G22   29.98R
WHEATON        SUNNY     52  37  58 NW17      30.04R
MORRIS         SUNNY     50  36  57 NW17      29.99R
ALEXANDRIA     SUNNY     51  35  54 NW22G30   29.98R
ELBOW LAKE     FAIR      46  35  66 NW10      30.00R
WADENA         SUNNY     48  36  61 NW17      29.95R
GLENWOOD       SUNNY     52  37  58 NW15      29.98R
APPLETON       SUNNY     54  36  50 NW20      30.00R
BENSON         SUNNY     48  37  66 N8        29.99R
ORTONVILLE     SUNNY     52  32  46 NW13G20   30.01R
MADISON        SUNNY     55  36  47 NW16      30.01R
WILLMAR        FAIR      54  39  58 NW6       29.98S
$$
MNZ033>034-036-042>043-049>051-058-059-211400-
   Central Minnesota

CITY           SKY/WX    TMP DP  RH WIND       PRES   REMARKS
ST CLOUD       CLOUDY    57  35  43 NW8       29.93R
SAUK CENTRE    FAIR      52  37  56 NW8       29.96R
PAYNESVILLE    SUNNY     55  36  49 CALM      29.96R
AITKIN         SUNNY     55  36  47 W3        29.89S
PINE RIVER     SUNNY     52  36  54 W10G16    29.95S
BRAINERD       SUNNY     60  33  36 W9        29.92S
STAPLES        SUNNY     52  34  50 NW12G18   29.94S
LONG PRAIRIE   FAIR      54  34  47 W9        29.96R
LITTLE FALLS   SUNNY     50  37  62 CALM      29.93S
LITCHFIELD     PTSUNNY   55  45  67 NW6       29.96R
BUFFALO        CLOUDY    53  48  82 CALM      29.95R
MAPLE LAKE     CLOUDY    56  46  69 W5        29.94R
$$
MNZ037-044-045-052-053-211400-
   East Central Minnesota

CITY           SKY/WX    TMP DP  RH WIND       PRES   REMARKS
PRINCETON      PTSUNNY   54  43  66 CALM      29.92R
MORA           SUNNY     50  34  53 CALM      29.92R
CAMBRIDGE      MOSUNNY   52  41  66 CALM      29.90S
RUSH CITY      MOSUNNY   48  40  73 CALM      29.91R
MOOSE LAKE     SUNNY     43  34  70 CALM      29.87S
HINCKLEY       FAIR      46  41  81 CALM      29.90R
CLOQUET        MOSUNNY   46  34  61 CALM      29.87S
MCGREGOR       SUNNY     48  36  61 W3        29.89F
$$
MNZ071>073-080-081-089-090-097-098-211400-
   Southwest Minnesota

CITY           SKY/WX    TMP DP  RH WIND       PRES   REMARKS
MONTEVIDEO     SUNNY     52  39  62 N9        30.00R
GRANITE FALLS  SUNNY     51  39  64 W8        30.01R
CANBY          SUNNY     52  36  54 NW10      30.02R
MARSHALL       SUNNY     52  36  54 NW14      30.00R
REDWOOD FALLS  MOSUNNY   56  44  64 N7        29.97R
OLIVIA         SUNNY     54  43  66 NW7       29.96R
PIPESTONE      MOSUNNY   54  36  50 N12G17    30.01R
WINDOM         CLOUDY    54  50  87 NW9       29.98R FOG
WORTHINGTON    PTSUNNY   54  37  54 N13       30.01R
JACKSON        CLOUDY    59  52  77 NW12      29.97R
TRACY          MOSUNNY   53  39  58 N13       30.00R
SLAYTON        PTSUNNY   52  37  56 N15       30.00R
$$
MNZ065>067-074>077-082>085-091>093-211400-
   South Central Minnesota

CITY           SKY/WX    TMP DP  RH WIND       PRES   REMARKS
MANKATO        CLOUDY    55  52  88 SE10      29.95R
NEW ULM        PTSUNNY   55  55 100 NW5       29.95R FOG
ST JAMES       CLOUDY    59  54  82 W9        29.95R HAZE
FAIRMONT       CLOUDY    59  54  82 W15       29.95R
GLENCOE        CLOUDY    56  52  85 CALM      29.95R
FARIBAULT      CLOUDY    57  54  88 S6        29.93S
OWATONNA       CLOUDY    55  54  94 S8        29.93F
WASECA         CLOUDY    55  54  94 E6        29.96F
ALBERT LEA     RAIN      54  54 100 NE9       29.97S
$$
MNZ078>079-086>088-094>096-211400-
   Southeast Minnesota

CITY           SKY/WX    TMP DP  RH WIND       PRES   REMARKS
ROCHESTER      LGT RAIN  54  52  93 NW8       29.96S FOG
RED WING       CLOUDY    59  54  82 N9        29.91R
STANTON        CLOUDY    57  54  87 SW10      29.91R
DODGE CENTER   HVY RAIN  57  55  94 S7        29.95F
WINONA           N/A    N/A N/A N/A MISG        N/A
AUSTIN         HVY RAIN  55  54  94 N8        29.97R
PRESTON        CLOUDY    58  54  86 NW8       29.95S
$$
ABBREVIATIONS USED IN REMARKS
   TC - TEMPERATURES IN CELSIUS
  WCI - WIND CHILL INDEX
   HX - HEAT INDEX
  VSB - VISIBILITY
$$


USA.gov is the U.S. government's official web portal to all federal, state and local government web resources and services.